User: anonymous   Login
Location: Black Creek
(40.9000°S, 175.5500°E)
Time: 17:24:46
(UTC+00:00)
Language:

Cosmos 2242 Rocket - Orbit

View from above orbital plane
View from above orbital plane
View from above satellite
View from above satellite

Ground track
Ground track

The orbit data is extracted from the following two-line orbital elements,

1 22627U 93024B   24283.85336438  .00001526  00000-0  20112-3 0  9999
2 22627  82.5207 138.1525 0021683 229.9726 129.9585 14.79369299696871
Epoch (UTC): 09 October 2024 20:28:50
Eccentricity: 0.0021683
inclination: 82.5207°
perigee height: 616 km
apogee height: 646 km
right ascension of ascending node: 138.1525°
argument of perigee: 229.9726°
revolutions per day: 14.79369299
mean anomaly at epoch: 129.9585°
orbit number at epoch: 69687

The dashed part of the orbit path shows where the satellite is in the earth's shadow,  

DLR